Location: Annone di Brianza
(45.8000°N, 9.3333°E)
Time: 01:50:46
(UTC+00:00)

Daily predictions for brighter satellites

Satellite Brightness Start Highest point End
(mag) Time Altitude Azimuth Time Altitude Azimuth Time Altitude Azimuth
CZ-2D R/B 3.9 00:02:55 10° NE 00:06:55 21° E 00:06:55 21° E
USA 215 3.1 00:09:23 10° NE 00:15:59 86° SE 00:16:00 86° SSE
Cosmos 1605 Rocket 4.4 00:13:44 10° N 00:19:58 56° ENE 00:20:38 53° E
CZ-4C R/B 3.7 00:19:00 26° WNW 00:20:38 31° NNW 00:26:11 10° NNE
Cosmos 1535 Rocket 4.5 00:14:23 10° N 00:20:38 83° NE 00:20:38 83° NE
Cosmos 1821 Rocket 4.2 00:20:03 10° NNW 00:25:44 59° WNW 00:25:44 59° WNW
Cosmos 2227 Rocket 3.6 00:38:06 26° ESE 00:38:10 26° ESE 00:42:47 10° NE
Cosmos 1934 Rocket 3.9 00:33:28 10° NNW 00:39:04 70° WNW 00:39:04 70° WNW
COSMOS 2428 3.2 00:36:53 10° NNW 00:41:13 51° NW 00:41:13 51° NW
Cosmos 407 Rocket 3.9 00:38:10 10° NNW 00:42:21 57° NNW 00:42:21 57° NNW
Cosmos 2360 Rocket 4.2 00:41:52 10° NW 00:43:35 17° WNW 00:43:35 17° WNW
SeaSat 1 3.3 00:44:54 10° NE 00:48:57 41° E 00:48:57 41° E
Cosmos 1140 Rocket 3.7 00:44:37 10° NNW 00:49:37 66° NE 00:49:37 66° NE
Timation 2 Rocket 4.4 00:49:07 53° W 00:49:55 57° WNW 00:56:26 10° NNE
USA 267 3.1 00:47:35 37° SE 00:50:28 88° SW 00:57:03 10° NW
Cosmos 2219 Rocket 2.9 00:48:43 10° NNW 00:52:37 42° WNW 00:52:37 42° WNW
Cosmos 2297 Rocket 3.1 00:54:03 37° ESE 00:54:15 37° ESE 00:59:25 10° NE
MOZ.5/SAFIR/RUBIN 5/SL-8 4.2 00:55:22 62° NNE 00:55:22 62° NNE 00:59:35 10° N
SL-16 R/B 2.5 00:57:14 67° SE 00:58:07 81° ENE 01:04:19 10° NNW
NOSS 3-4 (A) 4.4 00:53:02 10° NNW 00:59:50 54° NE 01:07:14 10° ESE
Cosmos 676 Rocket 4.2 00:54:35 10° NNW 00:59:56 69° ENE 01:00:08 68° E
NOSS 3-4 (C) 4.5 00:53:09 10° NNW 00:59:56 54° NE 01:07:20 10° ESE
NOSS 3-3 (C) 3.8 01:08:00 70° WSW 01:08:39 77° NW 01:15:23 10° NE
NOSS 3-3 (A) 3.8 01:08:00 69° W 01:08:40 77° NW 01:15:24 10° NE
Resurs 1-4 Rocket 2.0 01:05:59 10° NNE 01:11:16 74° ESE 01:11:22 74° ESE
Cosmos 1953 3.9 01:13:03 29° NNW 01:13:03 29° NNW 01:15:18 10° N
CZ-4B R/B 4.2 01:10:38 13° E 01:11:30 14° ENE 01:13:12 10° NNE
CZ-4B R/B 4.2 01:07:12 10° N 01:11:01 40° NW 01:11:01 40° NW
UNK 4.1 01:13:53 58° NNW 01:13:53 58° NNW 01:17:41 10° NNW
COSMOS 2455 3.6 01:09:13 10° NW 01:13:18 37° WNW 01:13:18 37° WNW
Cosmos 1727 Rocket 3.9 01:15:26 66° S 01:16:25 89° E 01:22:49 10° N
Cosmos 2237 Rocket 2.1 01:11:14 10° NNW 01:16:57 89° ENE 01:17:34 72° SSE
Cosmos 1726 Rocket 4.5 01:19:20 41° NNW 01:19:20 41° NNW 01:22:34 10° N
Cosmos 1980 3.5 01:12:44 10° NNW 01:18:26 84° WSW 01:18:41 80° SSW
H-2A R/B 3.0 01:24:37 38° NW 01:24:37 38° NW 01:27:21 10° NNW
Cosmos 2173 Rocket 4.3 01:16:58 10° N 01:23:11 64° ENE 01:25:55 35° SSE
SL-16 R/B 3.2 01:19:27 10° NNW 01:24:52 44° ENE 01:30:16 10° SE
Cosmos 2056 Rocket 3.7 01:25:48 58° WNW 01:25:57 59° WNW 01:31:20 10° NNE
Meteor 1-11 4.2 01:24:37 10° N 01:30:16 79° E 01:31:37 53° SSE
ERBS 4.3 01:31:10 26° N 01:31:10 26° N 01:33:23 10° NE
Cosmos 2333 Rocket 3.7 01:30:22 10° NW 01:32:55 22° WNW 01:32:55 22° WNW
Meteor 2-10 4.2 01:36:24 62° S 01:37:28 88° E 01:43:15 10° NNE
Cosmos 2219 3.3 01:39:16 56° WSW 01:40:08 63° WNW 01:45:53 10° NNE
Cosmos 2082 4.2 01:39:32 42° SSE 01:41:01 54° ESE 01:46:36 10° NE
SL-08 R/B 3.3 01:43:08 60° SSE 01:44:03 88° E 01:49:04 10° NNW
ATLAS 2AS CENTAUR R/B 2.7 01:37:40 10° NW 01:45:19 68° WSW 01:50:36 19° SSE
Cosmos 1812 Rocket 3.8 01:45:23 55° SE 01:45:54 60° E 01:50:12 10° NNE
CZ-4C R/B 4.2 01:47:12 38° NNW 01:47:12 38° NNW 01:49:28 10° NNW
Cosmos 1908 3.6 01:46:36 59° N 01:46:36 59° N 01:49:48 10° N
CZ-2D R/B 2.3 01:42:06 10° N 01:47:28 58° WNW 01:48:14 53° WSW
Cosmos 2016 Rocket 4.1 01:45:49 10° N 01:52:01 73° E 01:55:57 23° SSE
ARIANE 5 R/B 2.9 01:47:14 10° NNE 01:52:26 60° ESE 01:54:16 38° SSE
Cosmos 2100 Rocket 3.9 01:47:14 10° NNW 01:53:36 73° W 01:55:55 41° SSW
Cosmos 1726 3.2 01:55:01 36° NW 01:55:01 36° NW 01:57:43 10° N
ADEOS II 2.5 01:49:50 10° NNE 01:55:03 59° E 01:57:05 35° SSE
USA 215 4.1 01:52:33 10° NE 01:58:40 43° NNW 02:03:19 17° W
Cosmos 1802 Rocket 3.9 01:52:30 10° N 01:58:41 86° W 02:01:48 32° S
IRS-1D 3.5 01:56:28 10° N 02:01:37 68° WNW 02:02:47 51° SW
Cosmos 1356 3.9 02:03:30 53° ESE 02:03:36 53° E 02:07:00 10° NNE
Cosmos 1420 Rocket 4.1 02:03:56 49° WSW 02:05:01 60° WNW 02:10:15 10° NNE
CBERS-1 4.4 02:04:38 10° N 02:09:33 48° WNW 02:10:35 42° WSW
Cosmos 2123 Rocket 4.1 02:06:44 27° S 02:10:16 75° E 02:16:32 10° NNE
BREEZE-M DEB (TANK) 3.0 02:09:51 59° WSW 02:10:34 85° NNW 02:18:50 10° ENE
Cosmos 1300 3.0 02:11:01 48° SSE 02:11:49 62° E 02:15:35 10° NNE
Cosmos-2242 4.2 02:10:51 21° SSE 02:13:14 39° E 02:17:14 10° NNE
Cosmos 1459 Rocket 4.0 02:07:13 10° NNW 02:13:14 56° W 02:15:26 37° SSW
IRS-1C 4.1 02:08:19 10° N 02:13:38 67° WNW 02:15:21 42° SW
NPP 4.5 02:11:40 10° N 02:16:30 34° WNW 02:17:48 30° W
Cosmos 1271 Rocket 4.4 02:13:21 10° NNW 02:15:07 21° NW 02:15:07 21° NW
Cosmos 1110 Rocket 4.5 02:17:25 26° S 02:20:12 56° ESE 02:25:22 10° NNE
Cosmos 2227 Rocket 2.5 02:19:56 36° WSW 02:21:52 52° WNW 02:27:25 10° NNE
ERS-1 4.4 02:17:52 10° N 02:22:49 70° WNW 02:24:38 39° SW
Cosmos 1076 Rocket 3.4 02:18:56 10° NNW 02:23:10 67° W 02:24:15 46° SSW
Cosmos 1452 Rocket 3.9 02:21:53 37° WSW 02:23:27 49° WNW 02:28:35 10° NNE
Meteor 1-28 Rocket 4.3 02:21:40 10° SE 02:25:11 43° ENE 02:28:44 10° N
SeaSat 1 3.5 02:22:38 10° N 02:27:00 32° NW 02:28:44 25° W
Cosmos 1689 Rocket 2.2 02:26:57 57° SE 02:27:26 74° ENE 02:30:29 10° N
Cosmos 1725 Rocket 3.9 02:22:56 10° N 02:29:09 77° W 02:34:24 15° S
USA 267 4.1 02:34:49 26° WSW 02:34:49 26° WSW 02:39:25 10° WNW
IDEFIX/ARIANE 42P 4.2 02:31:18 10° NNE 02:35:55 31° E 02:40:32 10° SSE
Cosmos 2151 3.5 02:33:35 10° N 02:37:46 59° E 02:41:54 10° SSE
Cosmos 2297 Rocket 3.0 02:35:52 26° WSW 02:38:16 39° NW 02:43:34 10° NNE
Cosmos 1242 Rocket 3.5 02:37:57 10° NNW 02:40:27 29° WNW 02:40:27 29° WNW
SL-16 R/B 4.0 02:42:20 18° W 02:42:26 18° W 02:46:25 10° NW
CZ-4B R/B 2.0 02:43:57 35° W 02:43:57 35° W 02:46:39 10° NNW
Resurs 1-4 Rocket 3.8 02:47:03 10° NNW 02:50:30 18° WNW 02:52:26 15° W
NOSS 3-4 (A) 4.2 02:44:08 10° NW 02:50:44 42° WSW 02:57:52 10° S
NOSS 3-4 (C) 4.2 02:44:14 10° NW 02:50:50 42° WSW 02:58:00 10° S
Cosmos 1461 3.5 02:49:47 28° W 02:51:20 41° NW 02:55:08 10° NNE
Intercosmos 25 Rocket 3.1 02:52:28 35° SW 02:53:26 49° W 02:56:32 10° N
Cosmos 1892 2.9 02:49:40 10° N 02:53:30 72° E 02:57:20 10° SSE
Okean 3 Rocket 3.5 02:51:04 10° NNW 02:55:25 62° W 02:59:21 12° S
RESURS DK-1 4.2 02:51:56 10° NNW 02:55:47 35° NE 02:59:35 10° ESE
Cosmos 1943 4.2 02:50:22 10° NNW 02:55:56 50° ENE 03:01:27 10° SE
OE (NEXTSAT) 4.3 02:54:30 27° W 02:56:15 84° N 02:59:45 10° E
Cosmos 1766 Rocket 3.5 02:53:37 10° N 02:58:08 79° W 03:02:35 10° S
Cosmos 2237 Rocket 3.9 02:57:18 10° WNW 02:59:19 14° W 02:59:19 14° W
Cosmos 1603 4.0 02:54:38 10° NNW 03:00:17 72° ENE 03:05:55 10° SSE
PSLV R/B 4.2 02:58:29 10° NNE 03:02:46 55° E 03:07:02 10° S
Meteor 2-1 Rocket 4.4 02:58:36 17° SSW 03:03:09 63° WNW 03:08:57 10° N
SL-16 R/B 2.9 03:03:53 10° NW 03:08:49 32° WSW 03:13:44 10° SSW
CZ-2D R/B 4.3 03:05:57 10° N 03:09:57 36° WNW 03:12:22 20° WSW
CZ-2C R/B 3.5 03:08:38 10° N 03:12:24 40° WNW 03:14:50 19° SW
CZ-2C R/B 4.1 03:15:18 10° NE 03:19:21 30° E 03:23:24 10° SSE
Cosmos 2058 4.2 03:20:56 10° NW 03:24:06 22° W 03:26:05 16° SW
CZ-2D R/B 4.4 03:25:55 10° NW 03:26:23 10° NW 03:26:50 10° NW
Cosmos 1842 Rocket 3.7 03:24:32 10° S 03:28:56 79° E 03:33:21 10° NNE
Cosmos 1238 Rocket 2.0 03:26:00 10° NNW 03:28:56 67° W 03:32:04 10° S
ARIANE 5 R/B 4.0 03:27:13 10° NNW 03:31:06 21° WNW 03:34:36 11° WSW
Cosmos 2221 3.2 03:28:49 10° S 03:33:07 60° E 03:37:27 10° NNE
Cosmos 1302 Rocket 4.0 03:28:37 10° SSW 03:33:49 72° WNW 03:39:03 10° NNE
ADEOS II 3.5 03:30:24 10° NNW 03:34:20 22° WNW 03:38:01 11° WSW
ATLAS 2AS CENTAUR R/B 4.3 03:31:26 10° WNW 03:34:45 14° W 03:37:41 11° SW
Meteor 2-20 4.5 03:28:46 10° S 03:34:56 84° W 03:41:07 10° N
CZ-3 R/B 4.4 03:21:07 10° SW 03:37:29 23° S 03:44:24 10° SE
Cosmos 1500 Rocket 3.6 03:34:09 10° N 03:38:31 84° E 03:42:49 10° S
Cosmos 1486 Rocket 3.9 03:33:49 10° NNW 03:39:01 74° WSW 03:44:13 10° SSE
ADEOS 3.7 03:34:11 10° N 03:39:19 59° WNW 03:44:26 10° SSW
Cosmos 371 Rocket 3.5 03:35:51 10° SW 03:40:39 57° WNW 03:45:28 10° NNE
Cosmos 2263 Rocket 2.3 03:35:48 10° SSW 03:41:30 85° ESE 03:47:14 10° NNE
Cosmos 2034 Rocket 4.3 03:36:48 10° N 03:43:08 76° E 03:49:21 10° SSE
Cosmos 1464 Rocket 4.0 03:39:40 10° N 03:45:53 77° W 03:52:10 10° S
Cosmos 1455 2.5 03:42:44 10° SSW 03:46:20 46° WNW 03:49:59 10° N
Meteor 2-3 Rocket 3.8 03:43:52 10° N 03:49:31 84° E 03:55:05 10° SSE
H-2A R/B 3.0 03:53:18 10° N 03:57:22 43° WNW 04:01:17 10° SW
Cosmos 1503 Rocket 4.1 03:52:25 10° NNW 03:57:48 90° ENE 04:03:05 10° SSE
